Theta_e
315 314 315 315 315 313 313 312 312 312 312 313 314 316 323 328 327 329 332 337 339 339 337 335 334 335 333 333 337 344 342 344 346 348 346 348 344 347 350 351 351 351 350 349 349
316 315 315 315 315 314 313 313 312 312 312 313 314 316 321 327 326 327 336 335 339 338 336 335 335 336 334 333 335 339 338 341 342 344 344 344 342 343 350 351 350 351 350 349 348
316 317 316 314 315 315 314 313 313 312 312 313 314 315 320 327 323 326 330 335 339 336 335 335 337 336 334 334 334 338 340 339 344 344 344 343 342 347 350 351 349 350 349 349 349
316 317 317 315 314 315 315 314 313 313 313 313 314 315 320 325 325 332 330 340 334 336 335 336 338 337 332 333 334 337 337 341 345 344 343 344 344 345 350 350 349 349 350 350 350
315 317 318 316 314 315 315 314 313 313 313 313 313 315 319 324 325 332 334 333 332 332 333 336 337 336 333 332 332 335 336 340 343 343 344 343 344 343 345 350 349 350 351 350 350
314 316 317 317 314 314 315 315 314 313 313 313 313 314 319 322 329 331 332 332 332 333 336 337 337 336 333 332 332 333 337 336 343 345 345 345 343 344 350 350 349 351 351 351 351
314 315 317 317 314 314 315 315 314 314 313 313 313 314 317 324 327 331 332 332 333 336 337 337 336 335 334 331 334 334 335 334 334 342 344 344 344 343 350 350 349 351 352 351 351
313 314 316 317 315 314 315 315 315 314 313 313 314 314 319 325 325 332 330 331 332 336 336 336 335 334 332 333 332 332 332 334 334 337 343 342 343 342 350 349 349 349 351 351 351
313 314 316 317 315 314 316 315 315 314 314 314 314 316 321 324 326 330 328 328 333 337 335 335 335 333 332 330 329 330 333 335 337 334 342 335 333 345 350 349 349 349 348 348 349
314 314 316 316 315 315 316 316 315 314 314 314 315 324 324 323 324 328 328 327 330 335 335 334 333 328 324 327 333 334 332 334 337 334 335 333 331 348 350 349 349 349 348 348 348
314 314 316 316 315 315 316 315 313 313 314 315 318 325 326 325 325 328 328 327 328 330 329 330 328 329 330 328 330 330 329 331 334 332 332 329 326 348 349 349 348 348 348 348 348
314 314 316 316 315 315 316 314 317 321 320 322 316 317 323 324 324 327 328 327 329 329 329 327 328 329 329 329 330 327 327 328 329 330 328 327 329 337 346 349 349 348 347 347 348
315 315 316 315 315 315 316 315 319 321 318 323 324 318 318 323 324 326 328 327 329 330 330 329 330 330 331 330 328 326 329 329 329 327 327 330 330 339 338 338 346 349 348 347 348
315 316 316 315 315 315 315 319 322 316 318 322 322 322 321 321 322 325 327 328 327 329 329 329 330 332 331 330 325 328 328 329 329 326 327 326 327 336 338 338 344 346 348 348 349
315 316 316 315 315 315 319 323 324 319 325 324 321 323 323 323 323 325 324 326 326 328 328 330 329 329 329 329 327 327 329 328 329 325 326 332 334 333 334 340 348 350 346 348 349
315 317 317 316 315 317 322 325 321 321 329 327 323 321 321 321 322 323 324 324 326 325 325 324 326 326 326 328 328 326 326 323 324 322 325 328 334 336 339 338 341 348 350 349 349
315 317 317 316 317 321 325 325 320 325 325 322 321 319 320 319 321 321 322 322 323 324 324 324 326 326 327 327 325 323 322 324 326 333 331 332 335 334 337 335 338 340 343 347 349
317 318 318 316 323 323 325 322 326 325 326 322 320 318 320 319 320 321 320 320 320 322 321 324 326 327 327 326 326 325 323 322 328 328 337 335 339 338 339 344 342 343 345 345 346
321 322 319 317 320 320 325 323 325 325 328 325 320 319 319 321 322 322 320 319 320 321 323 322 324 322 324 324 324 324 324 321 322 331 336 337 337 336 340 341 343 348 345 347 346
322 320 318 319 320 321 322 325 327 325 329 326 320 320 319 320 322 321 320 321 323 321 322 323 323 323 328 327 325 325 322 325 322 338 342 342 341 339 341 345 343 348 348 349 342
324 325 318 317 321 322 322 325 326 327 327 329 323 320 319 319 319 320 320 322 322 321 321 319 320 322 328 329 326 326 329 324 324 332 337 339 339 333 338 343 340 347 347 346 342
324 325 320 317 318 316 320 325 325 324 324 323 322 319 319 319 319 319 320 321 324 320 321 320 316 322 330 326 328 330 331 327 330 334 334 333 335 331 335 340 338 345 343 338 337
320 325 322 318 317 317 320 324 324 324 324 325 324 323 320 319 320 319 320 328 325 323 323 323 323 325 327 328 329 332 333 327 324 324 331 335 333 332 332 335 340 341 339 337 341
322 328 321 319 319 318 324 324 324 326 326 327 326 329 327 323 324 325 327 330 330 330 328 325 319 323 327 331 330 334 334 331 328 331 331 330 335 332 333 338 344 346 342 342 343
323 326 327 318 319 318 322 322 324 323 326 325 327 329 330 332 330 328 329 329 329 331 326 322 326 328 329 335 335 333 332 333 334 332 333 335 335 334 333 335 340 346 347 349 349
329 328 329 329 332 329 319 321 324 324 326 325 329 331 330 332 329 331 329 330 331 329 328 322 328 327 329 329 331 331 331 334 333 333 332 334 336 332 334 334 333 339 346 344 344
323 327 329 328 330 326 319 325 328 330 328 327 328 330 331 332 331 331 332 331 330 330 327 325 323 323 330 326 329 331 331 333 333 331 333 337 335 331 326 326 326 326 326 326 326
Wind_Speed
11 11 11 11 11 10 10 9 9 9 9 8 8 9 10 12 13 18 25 12 6 7 10 11 12 9 12 15 18 9 3 2 4 5 3 11 4 6 5 15 5 6 16 27 28
12 11 11 11 11 10 10 9 9 9 9 9 8 9 10 12 15 22 16 13 11 8 13 17 18 17 5 8 13 6 4 8 7 6 5 10 9 12 5 11 5 17 21 33 29
13 12 11 11 10 10 10 9 9 8 8 8 7 8 9 10 15 17 11 9 6 10 14 16 16 12 4 6 9 12 6 6 8 12 11 10 9 6 16 2 10 28 34 33 31
13 13 11 10 10 10 10 9 9 8 7 8 7 7 8 7 4 2 7 7 8 9 11 12 11 15 5 2 8 6 11 14 12 11 12 8 14 7 9 7 19 24 32 36 33
13 13 12 9 9 9 9 9 9 8 7 7 8 7 7 7 12 2 8 7 5 9 11 11 14 8 4 9 13 6 5 18 19 18 8 13 7 5 9 13 17 25 33 38 37
14 13 12 9 8 9 9 9 8 8 7 6 7 7 7 6 8 7 6 6 6 8 10 11 10 17 10 6 1 8 7 9 17 15 9 8 2 6 8 24 24 29 35 36 37
14 13 12 9 7 8 9 8 8 7 7 6 7 8 11 20 7 9 7 6 4 6 11 11 17 15 19 8 8 4 6 2 9 14 7 9 3 5 24 28 31 33 35 36 36
14 14 12 10 7 7 8 8 7 7 6 6 6 8 11 11 18 15 6 5 4 6 11 17 17 15 5 9 8 5 5 4 5 12 6 14 8 5 31 32 28 28 34 36 36
14 13 12 9 7 6 7 7 6 6 7 6 6 6 10 8 15 13 8 6 3 7 10 13 12 4 2 3 5 6 3 3 3 13 7 5 4 7 33 29 28 29 29 32 35
15 13 12 9 6 6 6 6 5 6 6 5 7 4 12 4 12 15 9 9 4 7 10 5 5 3 4 4 2 5 5 4 6 6 8 8 6 10 29 28 29 29 32 34 34
15 13 11 7 6 6 7 4 3 3 11 11 7 5 2 3 6 16 12 11 7 4 3 6 4 6 7 5 2 5 5 10 4 5 6 7 3 10 23 20 19 24 28 33 37
15 14 10 6 6 7 9 6 3 2 8 17 25 22 19 15 6 12 15 6 3 2 2 6 6 8 5 6 3 5 7 2 3 1 3 1 7 3 15 21 27 28 29 32 30
15 13 9 5 7 9 13 10 5 4 2 7 14 22 18 4 5 5 13 12 3 3 3 5 9 7 4 12 4 3 3 2 4 2 6 3 5 4 4 3 21 26 28 23 28
16 12 8 5 6 9 3 7 4 7 4 5 6 5 10 7 5 7 12 7 2 7 5 5 7 6 8 8 6 1 3 0 3 4 2 3 4 4 6 6 7 15 27 29 30
16 12 8 9 4 8 6 3 2 4 1 3 5 4 8 8 1 8 10 8 5 4 6 7 5 4 6 7 5 7 3 2 1 4 3 1 5 4 1 6 5 3 14 23 27
17 13 9 11 13 9 2 1 8 5 4 2 8 7 5 3 3 1 8 8 1 4 0 8 11 4 8 4 2 2 5 6 5 3 3 7 3 6 2 6 3 5 10 17 15
17 13 10 11 8 7 1 10 5 3 5 4 5 5 4 4 2 4 3 4 4 4 3 6 6 4 5 2 4 6 6 3 5 5 4 4 4 6 4 5 4 2 8 10 15
14 9 9 12 12 3 4 5 2 4 6 1 6 4 6 6 5 3 7 6 0 5 2 1 8 3 3 8 7 3 7 6 3 2 3 5 1 5 4 3 4 9 10 9 2
7 4 8 13 12 2 2 2 6 6 4 3 5 5 3 4 3 3 6 7 8 8 7 5 6 5 6 2 8 2 2 4 7 3 3 4 4 2 4 5 11 16 14 13 7
5 3 7 14 10 5 4 4 4 4 6 3 7 4 8 4 5 5 6 6 6 11 7 2 3 3 5 3 5 4 6 3 3 4 3 4 5 5 7 6 6 12 19 18 8
2 2 12 13 11 3 3 7 6 11 2 2 5 6 7 7 9 7 9 5 11 4 9 5 3 8 3 5 2 5 3 6 6 4 5 2 6 5 7 8 8 15 27 19 16
1 2 15 20 4 2 3 5 4 8 18 12 6 8 9 9 8 8 10 7 10 14 9 6 5 2 2 3 4 4 4 4 5 1 2 3 5 6 7 7 12 14 12 9 15
8 3 16 14 3 2 5 5 7 10 7 3 7 9 7 9 4 7 6 3 9 10 11 8 0 3 8 6 5 6 3 5 5 3 2 5 5 5 6 2 16 8 9 16 21
2 2 5 9 2 5 1 6 5 11 10 8 5 2 4 3 2 7 7 2 5 5 12 10 4 6 6 5 4 4 1 3 5 4 3 4 2 6 4 7 12 13 17 16 18
1 1 2 3 6 4 3 5 11 6 6 5 2 3 2 5 3 5 3 2 6 2 5 5 4 4 2 1 2 5 3 3 4 5 5 4 6 2 3 6 7 16 14 14 14
3 4 5 2 5 4 5 4 5 5 6 8 1 1 6 5 6 7 8 3 4 6 4 4 2 3 6 6 7 5 11 5 4 5 8 8 6 4 14 23 25 15 11 9 2
4 2 3 3 4 3 5 5 4 3 10 11 8 7 12 5 7 13 12 9 9 7 3 4 6 3 1 4 3 6 7 4 5 5 5 5 3 7 11 17 19 18 17 13 11
Wind_Direction
318 307 297 289 283 278 275 274 277 276 277 275 275 279 280 284 279 270 257 239 230 265 302 318 324 323 293 242 208 202 49 257 250 177 178 168 133 140 173 144 141 177 160 163 160
324 315 302 290 280 274 271 270 272 275 276 276 273 273 284 291 290 258 215 246 256 290 306 321 331 328 203 217 180 153 147 222 219 158 175 162 159 138 133 155 64 98 136 156 166
328 321 309 292 277 270 267 266 268 271 273 274 273 266 279 298 309 250 255 244 245 291 301 314 330 332 321 184 190 170 202 213 208 183 156 136 129 128 124 219 175 145 151 168 173
331 325 315 296 276 264 263 262 264 267 270 272 269 259 274 289 256 232 220 223 280 293 295 319 313 326 305 336 218 143 222 166 195 178 160 155 138 122 177 191 169 168 166 171 178
333 328 319 300 273 259 253 255 257 261 262 264 265 259 272 268 252 181 181 232 281 295 302 312 314 329 324 315 313 170 174 179 183 189 151 151 155 186 192 167 168 173 172 178 186
334 330 322 305 272 253 247 248 251 254 255 255 259 257 260 266 217 237 247 282 272 285 304 295 293 316 286 258 101 310 196 167 173 184 169 139 172 145 169 170 167 179 182 185 191
332 330 322 306 274 248 241 242 246 250 252 250 254 258 254 233 227 235 240 275 264 263 284 291 308 311 311 298 339 282 153 0 148 183 175 142 308 227 166 173 164 184 191 195 199
332 329 323 306 276 246 237 236 241 246 247 245 251 264 253 248 241 218 238 265 280 254 278 307 314 312 222 289 347 111 66 147 245 160 197 155 256 212 170 166 174 183 200 203 207
333 328 322 305 272 240 230 231 234 238 240 241 247 248 261 237 227 217 243 282 257 225 287 306 326 292 348 49 9 5 248 202 259 179 149 187 243 179 175 174 181 191 199 207 214
333 327 321 304 265 229 219 222 226 239 236 232 236 275 258 214 216 231 244 271 294 283 321 355 352 14 40 69 245 280 325 266 192 216 169 193 238 173 179 180 189 192 203 210 215
333 327 321 298 250 217 206 188 202 224 222 213 211 215 251 69 253 220 240 245 262 294 28 360 18 265 272 216 215 253 223 232 231 202 144 219 83 190 188 194 197 200 207 212 218
332 327 320 289 236 212 203 205 167 71 292 245 248 257 261 290 295 227 227 219 138 189 54 4 274 277 247 265 291 269 250 327 29 107 115 158 135 134 192 205 203 202 210 212 218
331 327 317 271 227 215 218 216 256 344 317 276 234 242 244 203 248 217 196 202 140 178 146 179 252 306 322 305 311 232 134 126 153 45 26 60 346 35 33 215 211 218 221 217 215
330 325 307 250 233 221 227 118 37 255 49 268 208 248 214 237 270 218 199 169 152 201 185 231 300 271 285 250 190 61 213 329 103 67 227 82 265 53 340 0 23 219 208 208 214
327 318 290 226 236 145 130 55 93 150 46 206 177 165 172 171 224 216 209 190 180 176 100 246 318 342 312 257 163 218 81 60 23 113 103 342 86 322 349 356 333 347 200 206 215
322 308 275 232 228 153 321 356 137 46 257 206 156 170 126 187 233 240 199 212 164 159 353 248 268 231 222 294 180 75 82 49 51 82 36 329 84 321 293 221 274 334 187 196 197
316 297 256 217 206 162 356 145 49 149 333 193 167 142 153 178 227 173 158 120 167 97 323 318 261 256 187 203 25 73 55 359 360 16 217 315 63 225 291 283 177 219 294 209 221
313 283 236 198 164 65 126 60 205 245 242 276 123 102 156 165 245 194 141 187 268 94 66 235 328 191 194 194 179 102 144 146 218 219 260 333 145 230 208 109 129 113 112 85 230
319 265 227 186 192 223 135 92 220 215 270 2 67 92 253 240 182 150 161 194 193 161 176 173 267 311 242 139 128 164 148 187 101 36 71 305 314 140 176 203 118 101 88 61 51
320 257 202 176 175 145 83 238 246 234 339 28 171 165 184 237 155 137 171 204 218 187 147 191 313 285 330 85 40 109 158 57 22 145 191 301 287 236 192 191 242 113 115 133 144
324 282 167 174 157 152 171 235 280 272 334 325 219 196 213 183 177 181 206 273 199 123 139 155 99 296 11 19 253 27 24 52 112 102 150 171 264 231 178 186 172 151 153 174 196
6 65 167 167 94 38 174 212 290 274 289 240 221 203 192 178 176 191 209 228 197 145 157 201 146 200 177 9 18 112 111 113 110 209 112 147 272 310 182 189 162 179 217 183 198
344 21 166 177 152 250 268 269 260 278 261 231 231 194 187 190 160 168 198 267 207 160 169 182 39 52 353 1 1 57 4 101 106 72 196 133 266 346 107 226 203 191 174 183 206
351 69 140 233 251 143 183 268 253 299 272 227 256 194 112 136 276 160 178 335 122 109 144 125 94 145 173 203 163 103 343 89 108 107 177 225 326 333 34 85 110 136 149 165 196
5 18 110 222 281 242 185 293 289 297 271 285 240 204 163 108 69 107 113 42 37 70 59 89 105 97 144 215 121 69 74 212 122 171 159 184 112 314 27 85 105 131 139 148 170
35 15 351 257 284 211 191 247 234 272 237 321 343 217 63 118 161 150 139 139 155 25 80 22 146 58 17 354 60 62 21 93 26 100 77 109 86 34 66 74 61 66 82 66 17
15 336 294 304 323 100 197 260 265 296 267 230 250 68 66 22 101 122 99 110 142 121 92 88 125 90 229 346 36 14 336 49 46 15 130 127 93 115 84 85 83 80 78 72 52